Starlink 30899

operational
NORAD ID: 58420 Int'l Des: 2023-180 Owner: SPXS Country: US Constellation: starlink
LEOCIRCULAR

Über Starlink 30899

Beschreibung wird geladen...

Live-Position

3D-Globus wird geladen...

Nächste Überflüge

Höhenverlauf

Altitude vs Time

uPlot chart will show altitude changes over time

Zweizeiliger Elementsatz

1 58420U 23180U 25354.09619267 .00001128 00000-0 98545-4 0 9999
2 58420 43.0033 128.3886 0001569 272.1559 87.9104 15.02539171115507
Epoch: 20. Dez. 2025 • Age: 19 hours

Aktueller Status

Höhe 558.4 km
Geschwindigkeit 7.59 km/s
Subsatellitenpunkt 14.13°N, 86.69°E
Startdatum 22. Nov. 2023
Alter 2 years
Typ internet

Technische Details

Klassifizierung Payload
Masse 730.00 kg
Trockenmasse 700.00 kg
Gesamtmasse 730.00 kg
Länge 0.30 m
Durchmesser 4.10 m
Spannweite 29.00 m
Form Box + pan
Hersteller SPXS
Bus-Typ Starlink V2M
Phasenstatus In Orbit
Besitzer/Staat SPXS/US

Große Konstellationen

Loading constellations...